Tracking 18980 objects as of 20-Feb-2018
HD Live streaming from Space Station
objects crossing your sky now

FENGYUN 1C DEB

Track FENGYUN 1C DEB now!
10-day predictions


NORAD ID: 36695
Int'l Code: 1999-025DZR
Perigee: 575.5 km
Apogee: 970.4 km
Inclination: 98.4 °
Period: 100.2 minutes
Semi major axis: 7143 km
RCS: 0.0082 m2 (small)
Launch date: May 10, 1999
Source: People's Republic of China (PRC)
Launch site: Taiyaun Space Center, China (TSC)

Note: This is SATELLITE DEBRIS
aabbcc
Your satellite tracking list
Your tracking list is empty




NASA's NSSDC Master Catalog

Two Line Element Set (TLE):
1 36695U 99025DZR 18046.38476959  .00000114  00000-0  35500-4 0  9997
2 36695  98.3684 101.9936 0276377 114.3200 248.7112 14.37783619485462
Source of the keplerian elements: AFSPC